GW3580 Weather Reports


time (UTC)temp
F
wind
direction
speed
knots
gust
knots
rain 1hr
in
rain 24hr
in
rain mn
in
humidity
%
barometer
mb
20260504050340 59 281 4.3 5.2 0.00 0.00 0.00 56 1011.8
20260504045838 59 249 4.3 6.1 0.00 0.00 0.00 56 1011.9
20260504045332 60 289 5.2 6.1 0.00 0.00 0.00 56 1011.6
20260504044829 60 253 7.0 7.8 0.00 0.00 0.00 55 1011.6
20260504044327 60 305 3.5 5.2 0.00 0.00 0.00 56 1011.4
20260504043824 60 267 4.3 6.1 0.00 0.00 0.00 57 1011.3
20260504043320 61 274 4.3 5.2 0.00 0.00 0.00 57 1011.4
20260504042818 61 231 4.3 5.2 0.00 0.00 0.00 56 1011.3
20260504042314 61 264 4.3 5.2 0.00 0.00 0.00 56 1011.1
20260504041811 61 326 5.2 7.0 0.00 0.00 0.00 55 1011.1
20260504041307 61 257 4.3 6.1 0.00 0.00 0.00 56 1011.0
20260504040803 62 239 5.2 6.1 0.00 0.00 0.00 56 1010.9
20260504040301 62 273 5.2 7.0 0.00 0.00 0.00 54 1010.9
20260504035756 62 248 3.5 4.3 0.00 0.00 0.00 55 1010.6
20260504035254 62 248 1.7 3.5 0.00 0.00 0.00 55 1010.8
20260504034751 62 275 2.6 3.5 0.00 0.00 0.00 55 1010.5
20260504034249 62 235 3.5 5.2 0.00 0.00 0.00 54 1010.3
20260504033746 62 263 6.1 7.8 0.00 0.00 0.00 54 1010.3
20260504033243 63 277 4.3 5.2 0.00 0.00 0.00 55 1010.2
20260504032740 63 251 2.6 4.3 0.00 0.00 0.00 54 1010.2
20260504032237 63 264 4.3 6.1 0.00 0.00 0.00 54 1010.2
20260504031733 63 267 3.5 5.2 0.00 0.00 0.00 54 1010.0
20260504031232 64 254 5.2 6.1 0.00 0.00 0.00 53 1009.8
20260504030727 64 247 4.3 5.2 0.00 0.00 0.00 53 1009.8
20260504030225 64 259 4.3 5.2 0.00 0.00 0.00 53 1009.9
20260504025721 65 242 5.2 7.0 0.00 0.00 0.00 53 1009.8
20260504025218 65 296 6.1 7.0 0.00 0.00 0.00 53 1009.6
20260504024715 66 282 5.2 7.0 0.00 0.00 0.00 52 1009.4
20260504024211 66 283 3.5 4.3 0.00 0.00 0.00 53 1009.4
20260504023708 66 249 4.3 5.2 0.00 0.00 0.00 52 1009.3
20260504023204 67 267 4.3 5.2 0.00 0.00 0.00 53 1009.3
20260504022700 67 247 3.5 4.3 0.00 0.00 0.00 52 1009.2
20260504022156 68 241 4.3 6.1 0.00 0.00 0.00 51 1009.1
20260504021655 68 257 6.1 7.8 0.00 0.00 0.00 51 1008.8
20260504021151 68 242 4.3 5.2 0.00 0.00 0.00 51 1008.9
20260504020648 69 255 5.2 6.1 0.00 0.00 0.00 51 1008.8
20260504020144 70 261 7.8 9.6 0.00 0.00 0.00 50 1008.7
20260504015641 71 256 4.3 5.2 0.00 0.00 0.00 49 1008.7
20260504015137 72 260 1.7 1.7 0.00 0.00 0.00 49 1008.5
20260504014632 73 276 0.9 0.9 0.00 0.00 0.00 48 1008.7
20260504014130 72 254 1.7 1.7 0.00 0.00 0.00 47 1008.7
20260504013628 73 247 1.7 1.7 0.00 0.00 0.00 48 1008.7
20260504013124 73 7 0.0 0.0 0.00 0.00 0.00 46 1008.5
20260504012622 73 30 0.0 0.9 0.00 0.00 0.00 44 1008.6
20260504012120 73 41 0.0 0.0 0.00 0.00 0.00 44 1008.7
20260504011616 74 323 0.0 0.0 0.00 0.00 0.00 44 1008.6
20260504011112 74 47 0.0 0.9 0.00 0.00 0.00 43 1008.7
20260504010608 75 253 0.9 0.9 0.00 0.00 0.00 44 1008.6
20260504010104 75 266 1.7 1.7 0.00 0.00 0.00 42 1008.7
20260504005601 75 260 0.9 1.7 0.00 0.00 0.00 41 1008.7
20260504005058 75 261 2.6 3.5 0.00 0.00 0.00 42 1008.5
20260504004556 76 236 0.0 0.9 0.00 0.00 0.00 40 1008.6
20260504004053 77 247 1.7 1.7 0.00 0.00 0.00 39 1008.6
20260504003549 76 267 0.9 0.9 0.00 0.00 0.00 39 1008.5
20260504003046 74 260 0.0 0.9 0.00 0.00 0.00 39 1008.7
20260504002543 75 253 2.6 3.5 0.00 0.00 0.00 39 1008.7
20260504002040 75 238 2.6 3.5 0.00 0.00 0.00 41 1008.8
20260504001538 75 240 2.6 3.5 0.00 0.00 0.00 40 1008.6
20260504001034 75 18 1.7 3.5 0.00 0.00 0.00 39 1008.7
20260504000531 75 24 0.9 0.9 0.00 0.00 0.00 40 1008.8
20260504000029 74 253 2.6 3.5 0.00 0.00 0.00 43 1009.1
20260503235527 74 269 0.9 0.9 0.00 0.00 0.00 42 1008.8
20260503235023 74 224 1.7 1.7 0.00 0.00 0.00 42 1009.0
20260503234521 74 345 0.0 0.0 0.00 0.00 0.00 41 1008.9
20260503234019 74 234 2.6 3.5 0.00 0.00 0.00 42 1008.9
20260503233515 75 251 0.0 0.0 0.00 0.00 0.00 41 1009.1
20260503233011 75 305 1.7 1.7 0.00 0.00 0.00 41 1009.0
20260503232508 74 265 3.5 3.5 0.00 0.00 0.00 43 1009.0
20260503232006 75 317 1.7 1.7 0.00 0.00 0.00 42 1009.0
20260503231504 74 250 1.7 3.5 0.00 0.00 0.00 43 1009.0
20260503231000 74 285 2.6 3.5 0.00 0.00 0.00 44 1009.0
20260503230457 74 234 0.0 0.9 0.00 0.00 0.00 45 1009.1
20260503225954 74 287 0.0 0.0 0.00 0.00 0.00 43 1009.0
20260503225451 73 243 1.7 1.7 0.00 0.00 0.00 44 1009.2
20260503224946 72 329 0.0 0.0 0.00 0.00 0.00 46 1009.2
20260503224444 72 23 0.0 0.0 0.00 0.00 0.00 48 1009.2
20260503223941 72 279 0.9 1.7 0.00 0.00 0.00 45 1009.5
20260503223439 74 314 0.9 0.9 0.00 0.00 0.00 45 1009.4
20260503222934 74 24 0.9 0.9 0.00 0.00 0.00 43 1009.3
20260503222433 74 29 0.0 0.9 0.00 0.00 0.00 44 1009.5
20260503221931 73 35 0.9 0.9 0.00 0.00 0.00 44 1009.5
20260503221429 72 286 3.5 4.3 0.00 0.00 0.00 46 1009.8
20260503220925 73 258 0.9 0.9 0.00 0.00 0.00 47 1009.8
20260503220422 72 253 1.7 1.7 0.00 0.00 0.00 47 1009.6
20260503215919 71 260 2.6 3.5 0.00 0.00 0.00 49 1009.9
20260503215416 71 281 0.9 0.9 0.00 0.00 0.00 48 1010.0
20260503214914 71 29 0.0 0.0 0.00 0.00 0.00 48 1009.7
20260503214411 71 254 1.7 1.7 0.00 0.00 0.00 49 1009.9
20260503213908 71 331 0.0 0.0 0.00 0.00 0.00 48 1010.0
20260503213406 71 257 0.0 0.9 0.00 0.00 0.00 49 1009.8
20260503212902 71 250 2.6 3.5 0.00 0.00 0.00 48 1010.0
20260503212400 71 228 2.6 3.5 0.00 0.00 0.00 48 1010.2
20260503211857 71 319 0.9 0.9 0.00 0.00 0.00 48 1010.1
20260503211354 71 9 0.0 0.0 0.00 0.00 0.00 47 1010.1
20260503210848 73 276 2.6 3.5 0.00 0.00 0.00 45 1010.2
20260503210347 71 257 1.7 1.7 0.00 0.00 0.00 48 1010.1
20260503205841 69 255 0.9 0.9 0.00 0.00 0.00 50 1010.2
20260503205339 70 242 1.7 1.7 0.00 0.00 0.00 49 1010.2
20260503204835 69 233 3.5 4.3 0.00 0.00 0.00 51 1010.3
20260503204332 69 271 1.7 1.7 0.00 0.00 0.00 51 1010.3
20260503203829 71 353 0.9 0.9 0.00 0.00 0.00 48 1010.2
20260503203327 70 257 0.0 0.9 0.00 0.00 0.00 49 1010.3
20260503202824 71 269 3.5 4.3 0.00 0.00 0.00 48 1010.6
20260503202322 71 27 0.9 1.7 0.00 0.00 0.00 47 1010.5
20260503201820 71 15 0.9 0.9 0.00 0.00 0.00 47 1010.3
20260503201316 69 47 0.9 0.9 0.00 0.00 0.00 48 1010.6
20260503200814 68 258 2.6 3.5 0.00 0.00 0.00 50 1010.8
20260503200309 70 253 3.5 4.3 0.00 0.00 0.00 49 1010.6
20260503195807 71 33 2.6 3.5 0.00 0.00 0.00 48 1010.8
20260503195304 71 245 2.6 3.5 0.00 0.00 0.00 46 1010.9
20260503194801 68 301 2.6 3.5 0.00 0.00 0.00 50 1011.1
20260503194256 68 271 1.7 1.7 0.00 0.00 0.00 51 1011.3
20260503193753 70 244 1.7 1.7 0.00 0.00 0.00 48 1011.1
20260503193249 69 317 0.0 0.9 0.00 0.00 0.00 49 1011.1
20260503192745 70 267 2.6 4.3 0.00 0.00 0.00 48 1011.2
20260503192240 70 285 2.6 3.5 0.00 0.00 0.00 48 1011.1
20260503191737 70 232 3.5 4.3 0.00 0.00 0.00 48 1011.5
20260503191234 70 16 2.6 3.5 0.00 0.00 0.00 48 1011.2
20260503190731 70 238 1.7 1.7 0.00 0.00 0.00 49 1011.5
20260503190228 69 40 1.7 3.5 0.00 0.00 0.00 49 1011.5
20260503185725 69 13 1.7 3.5 0.00 0.00 0.00 48 1011.5
20260503185220 69 2 1.7 1.7 0.00 0.00 0.00 48 1011.6
20260503184715 69 9 1.7 1.7 0.00 0.00 0.00 49 1011.4
20260503184212 68 269 2.6 4.3 0.00 0.00 0.00 51 1011.5
20260503183708 68 322 0.0 0.0 0.00 0.00 0.00 50 1011.7
20260503183206 68 2 0.9 0.9 0.00 0.00 0.00 49 1011.6
20260503182704 68 253 2.6 3.5 0.00 0.00 0.00 50 1011.6
20260503182202 68 222 0.0 0.0 0.00 0.00 0.00 53 1011.6
20260503181658 69 136 0.9 0.9 0.00 0.00 0.00 50 1011.8
20260503181155 68 298 0.0 0.9 0.00 0.00 0.00 52 1011.8
20260503180652 68 259 2.6 3.5 0.00 0.00 0.00 52 1011.8
20260503180150 67 253 2.6 4.3 0.00 0.00 0.00 53 1011.7
20260503175647 67 243 0.0 0.0 0.00 0.00 0.00 52 1011.7
20260503175144 66 271 0.9 0.9 0.00 0.00 0.00 53 1011.7
20260503174640 66 277 3.5 4.3 0.00 0.00 0.00 53 1011.5
20260503174138 66 276 2.6 3.5 0.00 0.00 0.00 55 1011.6
20260503173632 65 236 2.6 3.5 0.00 0.00 0.00 55 1011.4
20260503173129 66 247 4.3 4.3 0.00 0.00 0.00 55 1011.8
20260503172626 66 27 1.7 1.7 0.00 0.00 0.00 55 1011.5
20260503172124 65 228 2.6 3.5 0.00 0.00 0.00 55 1011.4
20260503171620 64 259 2.6 4.3 0.00 0.00 0.00 57 1011.7
20260503171117 65 251 2.6 3.5 0.00 0.00 0.00 56 1011.5
20260503170615 65 243 0.9 1.7 0.00 0.00 0.00 57 1011.5
20260503170111 64 270 1.7 3.5 0.00 0.00 0.00 60 1011.4
20260503151006 58 24 1.7 1.7 0.00 0.00 0.00 72 1011.0
20260503150503 57 19 0.9 0.9 0.00 0.00 0.00 74 1010.9
20260503131355 54 273 0.9 0.9 0.00 0.00 0.00 81 1009.1
20260503130853 54 269 0.0 0.0 0.00 0.00 0.00 81 1009.0
20260503130350 54 252 0.0 0.0 0.00 0.00 0.00 81 1008.8
20260503110744 56 305 0.9 1.7 0.00 0.00 0.00 78 1008.3
20260503110241 56 270 1.7 1.7 0.00 0.00 0.00 78 1008.5
20260503100208 57 322 0.0 0.9 0.00 0.00 0.00 76 1008.1
20260503090132 59 25 2.6 4.3 0.00 0.00 0.00 74 1008.1
20260503081602 60 255 1.7 1.7 0.00 0.00 0.00 72 1008.5
20260503081059 60 239 1.7 1.7 0.00 0.00 0.00 71 1008.5
20260503080554 61 238 2.6 4.3 0.00 0.00 0.00 70 1008.5
20260503072529 62 258 0.9 0.9 0.00 0.00 0.00 70 1008.4
20260503072026 62 276 1.7 3.5 0.00 0.00 0.00 70 1008.5
20260503071523 63 233 0.9 1.7 0.00 0.00 0.00 70 1008.3
20260503071019 63 242 2.6 3.5 0.00 0.00 0.00 70 1008.4
20260503070516 63 270 0.9 0.9 0.00 0.00 0.00 70 1008.3